TimeCEST,TemperatureF,Dew PointF,Humidity,Sea Level PressureIn,VisibilityMPH,Wind Direction,Wind SpeedMPH,Gust SpeedMPH,PrecipitationIn,Events,Conditions,WindDirDegrees,DateUTC
12:07 AM,39.2,39.2,100,29.98,1.7,Calm,Calm,-,N/A,,Mist,0,2012-10-06 22:07:00
12:11 AM,41.0,39.2,93,29.98,0.9,Calm,Calm,-,N/A,,Mist,0,2012-10-06 22:11:00
12:17 AM,41.0,41.0,100,29.98,-9999.0,Calm,Calm,-,N/A,Fog,Fog,0,2012-10-06 22:17:00
12:25 AM,39.2,39.2,100,29.98,6.2,NW,1.2,-,N/A,,Mostly Cloudy,320,2012-10-06 22:25:00
12:38 AM,39.2,39.2,100,29.98,5.6,Calm,Calm,-,N/A,,Overcast,0,2012-10-06 22:38:00
12:41 AM,39.2,39.2,100,29.98,1.1,Calm,Calm,-,N/A,,Mist,0,2012-10-06 22:41:00
12:46 AM,39.2,39.2,100,29.98,-9999.0,Calm,Calm,-,N/A,,Overcast,0,2012-10-06 22:46:00
12:55 AM,39.2,39.2,100,29.98,4.3,Calm,Calm,-,N/A,,Overcast,0,2012-10-06 22:55:00
1:08 AM,39.2,39.2,100,29.98,4.3,West,1.2,-,N/A,,Overcast,280,2012-10-06 23:08:00
1:25 AM,39.2,39.2,100,29.98,6.2,Calm,Calm,-,N/A,,Mostly Cloudy,0,2012-10-06 23:25:00
1:29 AM,39.2,39.2,100,29.98,6.2,Calm,Calm,-,N/A,,Partly Cloudy,0,2012-10-06 23:29:00
1:37 AM,39.2,39.2,100,29.98,4.3,WNW,1.2,-,N/A,,Mist,290,2012-10-06 23:37:00
1:42 AM,39.2,39.2,100,29.98,5.0,SW,1.2,-,N/A,,Mist,230,2012-10-06 23:42:00
1:46 AM,39.2,39.2,100,29.98,-9999.0,SSW,2.3,-,N/A,,Mist,210,2012-10-06 23:46:00
1:50 AM,39.2,39.2,100,29.98,1.6,SSW,2.3,-,N/A,,Mist,210,2012-10-06 23:50:00
1:55 AM,39.2,39.2,100,29.98,-9999.0,SW,2.3,-,N/A,,Mist,230,2012-10-06 23:55:00
2:00 AM,37.4,37.4,100,29.98,1.5,WNW,1.2,-,N/A,,Mist,290,2012-10-07 00:00:00
2:25 AM,39.2,39.2,100,29.98,5.0,South,2.3,-,N/A,,Mist,190,2012-10-07 00:25:00
2:29 AM,39.2,39.2,100,29.98,4.3,South,2.3,-,N/A,,Mist,190,2012-10-07 00:29:00
2:37 AM,37.4,37.4,100,29.98,5.0,South,4.6,-,N/A,,Mist,190,2012-10-07 00:37:00
2:46 AM,37.4,37.4,100,30.01,4.3,SSW,2.3,-,N/A,,Mist,210,2012-10-07 00:46:00
2:51 AM,37.4,37.4,100,30.01,5.6,SW,1.2,-,N/A,,Mist,220,2012-10-07 00:51:00
2:55 AM,37.4,37.4,100,30.01,5.0,SW,1.2,-,N/A,,Mist,230,2012-10-07 00:55:00
2:59 AM,37.4,37.4,100,30.01,3.1,WSW,1.2,-,N/A,,Mist,250,2012-10-07 00:59:00
3:08 AM,35.6,35.6,100,30.01,0.9,West,1.2,-,N/A,,Mist,280,2012-10-07 01:08:00
3:12 AM,35.6,35.6,100,30.01,5.0,WNW,1.2,-,N/A,,Mist,290,2012-10-07 01:12:00
3:16 AM,35.6,35.6,100,30.01,3.1,West,1.2,-,N/A,,Mist,280,2012-10-07 01:16:00
3:20 AM,35.6,35.6,100,30.01,0.9,Calm,Calm,-,N/A,,Mist,0,2012-10-07 01:20:00
3:25 AM,35.6,35.6,100,30.01,0.6,Calm,Calm,-,N/A,,Mist,0,2012-10-07 01:25:00
3:26 AM,35.6,35.6,100,30.01,0.2,Calm,Calm,-,N/A,Fog,Fog,0,2012-10-07 01:26:00
3:55 AM,37.4,37.4,100,30.01,0.2,SW,2.3,-,N/A,Fog,Fog,230,2012-10-07 01:55:00
4:13 AM,35.6,35.6,100,30.01,0.5,SSW,1.2,-,N/A,Fog,Fog,210,2012-10-07 02:13:00
4:15 AM,35.6,35.6,100,30.01,0.4,SSW,1.2,-,N/A,Fog,Fog,210,2012-10-07 02:15:00
4:25 AM,35.6,35.6,100,30.01,3.7,SW,1.2,-,N/A,,Mist,220,2012-10-07 02:25:00
4:29 AM,35.6,35.6,100,30.01,5.6,SW,1.2,-,N/A,,Mist,220,2012-10-07 02:29:00
4:34 AM,35.6,35.6,100,30.01,3.7,Calm,Calm,-,N/A,,Mist,0,2012-10-07 02:34:00
4:36 AM,35.6,35.6,100,30.01,-9999.0,Calm,Calm,-,N/A,,Mist,0,2012-10-07 02:36:00
4:55 AM,37.4,37.4,100,30.01,5.6,SW,1.2,-,N/A,,Mist,220,2012-10-07 02:55:00
5:01 AM,35.6,35.6,100,30.01,3.7,SW,1.2,-,N/A,,Mist,230,2012-10-07 03:01:00
5:04 AM,35.6,35.6,100,30.01,-9999.0,SW,1.2,-,N/A,,Mist,220,2012-10-07 03:04:00
5:11 AM,35.6,35.6,100,30.01,3.7,South,2.3,-,N/A,,Mist,190,2012-10-07 03:11:00
5:25 AM,35.6,35.6,100,30.01,3.1,SSW,1.2,-,N/A,,Mist,200,2012-10-07 03:25:00
5:30 AM,37.4,37.4,100,30.01,5.6,SSW,1.2,-,N/A,,Mist,210,2012-10-07 03:30:00
5:36 AM,37.4,37.4,100,30.01,4.3,SW,1.2,-,N/A,,Mist,220,2012-10-07 03:36:00
5:43 AM,37.4,37.4,100,30.01,6.2,WSW,1.2,-,N/A,,Partly Cloudy,240,2012-10-07 03:43:00
5:51 AM,37.4,37.4,100,30.01,3.7,SW,1.2,-,N/A,,Mostly Cloudy,220,2012-10-07 03:51:00
5:55 AM,37.4,37.4,100,30.01,5.0,SSW,1.2,-,N/A,,Mostly Cloudy,210,2012-10-07 03:55:00
5:59 AM,35.6,35.6,100,30.01,4.3,SSW,1.2,-,N/A,,Mostly Cloudy,210,2012-10-07 03:59:00
6:03 AM,37.4,35.6,93,30.01,6.2,SSW,1.2,-,N/A,,Overcast,200,2012-10-07 04:03:00
6:16 AM,37.4,37.4,100,30.01,6.2,WSW,2.3,-,N/A,,Mostly Cloudy,250,2012-10-07 04:16:00
6:25 AM,37.4,37.4,100,30.01,6.2,West,1.2,-,N/A,,Mostly Cloudy,260,2012-10-07 04:25:00
6:55 AM,37.4,37.4,100,30.04,6.2,SW,1.2,-,N/A,,Overcast,230,2012-10-07 04:55:00
7:25 AM,37.4,37.4,100,30.04,6.2,WSW,1.2,-,N/A,,Partly Cloudy,240,2012-10-07 05:25:00
7:46 AM,37.4,37.4,100,30.04,4.3,South,1.2,-,N/A,,Mist,170,2012-10-07 05:46:00
7:55 AM,37.4,37.4,100,30.04,5.6,SW,1.2,-,N/A,,Mist,220,2012-10-07 05:55:00
8:09 AM,37.4,37.4,100,30.04,6.2,Calm,Calm,-,N/A,,Unknown,0,2012-10-07 06:09:00
8:25 AM,37.4,37.4,100,30.06,6.2,Calm,Calm,-,N/A,,Unknown,0,2012-10-07 06:25:00
8:32 AM,39.2,37.4,93,30.06,4.3,Calm,Calm,-,N/A,,Mist,0,2012-10-07 06:32:00
8:38 AM,39.2,39.2,100,30.06,5.0,WSW,1.2,-,N/A,,Mist,250,2012-10-07 06:38:00
8:51 AM,39.2,39.2,100,30.06,6.2,West,2.3,-,N/A,,Scattered Clouds,270,2012-10-07 06:51:00
8:55 AM,39.2,39.2,100,30.06,6.2,WSW,1.2,-,N/A,,Mostly Cloudy,250,2012-10-07 06:55:00
9:25 AM,42.8,42.8,100,30.09,6.2,WNW,5.8,-,N/A,,Mostly Cloudy,290,2012-10-07 07:25:00
9:55 AM,48.2,48.2,100,30.09,6.2,WNW,3.5,-,N/A,,Unknown,290,2012-10-07 07:55:00
10:25 AM,51.8,50.0,94,30.09,6.2,North,4.6,-,N/A,,Unknown,350,2012-10-07 08:25:00
10:55 AM,53.6,46.4,77,30.12,6.2,North,5.8,-,N/A,,Unknown,360,2012-10-07 08:55:00
11:25 AM,55.4,44.6,67,30.12,6.2,North,5.8,-,N/A,,Unknown,360,2012-10-07 09:25:00
11:43 AM,55.4,42.8,63,30.12,3.1,North,8.1,-,N/A,,Haze,360,2012-10-07 09:43:00
11:44 AM,55.4,42.8,63,30.12,6.2,North,8.1,-,N/A,,Partly Cloudy,360,2012-10-07 09:44:00
11:55 AM,55.4,42.8,63,30.15,6.2,NNW,8.1,-,N/A,,Partly Cloudy,340,2012-10-07 09:55:00
12:05 PM,57.2,42.8,59,30.15,6.2,North,9.2,-,N/A,,Partly Cloudy,360,2012-10-07 10:05:00
12:25 PM,57.2,42.8,59,30.15,6.2,North,9.2,-,N/A,,Partly Cloudy,350,2012-10-07 10:25:00
12:55 PM,57.2,42.8,59,30.15,6.2,North,8.1,-,N/A,,Partly Cloudy,350,2012-10-07 10:55:00
1:25 PM,57.2,41.0,55,30.15,6.2,North,8.1,-,N/A,,Partly Cloudy,350,2012-10-07 11:25:00
1:55 PM,59.0,42.8,55,30.15,6.2,NNW,6.9,-,N/A,,Mostly Cloudy,340,2012-10-07 11:55:00
2:25 PM,57.2,41.0,55,30.15,6.2,NW,5.8,-,N/A,,Overcast,320,2012-10-07 12:25:00
2:55 PM,59.0,41.0,51,30.18,6.2,NNW,5.8,-,N/A,,Scattered Clouds,330,2012-10-07 12:55:00
3:25 PM,59.0,41.0,51,30.18,6.2,North,8.1,-,N/A,,Partly Cloudy,360,2012-10-07 13:25:00
3:55 PM,59.0,39.2,48,30.18,6.2,NNW,8.1,-,N/A,,Scattered Clouds,330,2012-10-07 13:55:00
4:25 PM,57.2,41.0,55,30.18,6.2,NNW,6.9,-,N/A,,Unknown,330,2012-10-07 14:25:00
4:55 PM,57.2,39.2,51,30.18,6.2,North,9.2,-,N/A,,Mostly Cloudy,360,2012-10-07 14:55:00
5:25 PM,59.0,39.2,48,30.18,6.2,North,6.9,-,N/A,,Scattered Clouds,350,2012-10-07 15:25:00
5:55 PM,57.2,41.0,55,30.18,6.2,NW,4.6,-,N/A,,Overcast,310,2012-10-07 15:55:00
6:25 PM,53.6,41.0,62,30.18,6.2,North,4.6,-,N/A,,Unknown,350,2012-10-07 16:25:00
6:55 PM,51.8,41.0,67,30.21,6.2,North,3.5,-,N/A,,Unknown,350,2012-10-07 16:55:00
7:25 PM,48.2,42.8,82,30.21,6.2,NNW,1.2,-,N/A,,Unknown,330,2012-10-07 17:25:00
7:55 PM,46.4,42.8,87,30.21,6.2,West,1.2,-,N/A,,Partly Cloudy,260,2012-10-07 17:55:00
8:25 PM,44.6,42.8,93,30.21,6.2,Calm,Calm,-,N/A,,Mostly Cloudy,0,2012-10-07 18:25:00
8:55 PM,42.8,42.8,100,30.21,6.2,WNW,2.3,-,N/A,,Partly Cloudy,290,2012-10-07 18:55:00
9:25 PM,44.6,42.8,93,30.21,6.2,SSW,2.3,-,N/A,,Mostly Cloudy,210,2012-10-07 19:25:00
9:55 PM,42.8,42.8,100,30.24,6.2,SW,1.2,-,N/A,,Overcast,220,2012-10-07 19:55:00
10:25 PM,42.8,41.0,93,30.21,6.2,SSE,1.2,-,N/A,,Mostly Cloudy,160,2012-10-07 20:25:00
10:31 PM,42.8,41.0,93,30.21,4.3,SSE,1.2,-,N/A,,Overcast,150,2012-10-07 20:31:00
10:36 PM,42.8,41.0,93,30.21,6.2,SSE,1.2,-,N/A,,Overcast,150,2012-10-07 20:36:00
10:49 PM,41.0,41.0,100,30.21,6.2,Calm,Calm,-,N/A,,Overcast,0,2012-10-07 20:49:00
10:55 PM,42.8,42.8,100,30.24,6.2,Calm,Calm,-,N/A,,Overcast,0,2012-10-07 20:55:00
11:08 PM,42.8,42.8,100,30.21,4.3,North,1.2,-,N/A,,Overcast,360,2012-10-07 21:08:00
11:16 PM,41.0,41.0,100,30.21,-9999.0,Calm,Calm,-,N/A,,Scattered Clouds,0,2012-10-07 21:16:00
11:20 PM,41.0,41.0,100,30.24,-9999.0,South,1.2,-,N/A,,Mist,190,2012-10-07 21:20:00
11:25 PM,41.0,41.0,100,30.24,3.7,South,1.2,-,N/A,,Mist,190,2012-10-07 21:25:00
11:26 PM,41.0,41.0,100,30.24,6.2,South,1.2,-,N/A,,Unknown,190,2012-10-07 21:26:00
11:42 PM,41.0,41.0,100,30.24,6.2,South,1.2,-,N/A,,Unknown,190,2012-10-07 21:42:00
11:55 PM,41.0,41.0,100,30.24,4.3,SW,1.2,-,N/A,,Mist,220,2012-10-07 21:55:00
11:59 PM,41.0,39.2,93,30.24,6.2,West,1.2,-,N/A,,Partly Cloudy,260,2012-10-07 21:59:00